Time,TemperatureF,DewpointF,PressureIn,WindDirection,WindDirectionDegrees,WindSpeedMPH,WindSpeedGustMPH,Humidity,HourlyPrecipIn,Conditions,Clouds,dailyrainin,SoftwareType,DateUTC
2013-10-16 00:12:00,31.0,22.0,30.10,West,271,3.0,5.0,70,0.00,,,0.00,,2013-10-16 06:12:00,
2013-10-16 00:22:00,30.0,21.0,30.11,WSW,255,0.0,5.0,70,0.00,,,0.00,,2013-10-16 06:22:00,
2013-10-16 00:43:00,29.0,21.0,30.10,West,261,1.0,3.0,72,0.00,,,0.00,,2013-10-16 06:43:00,
2013-10-16 00:52:00,29.0,22.0,30.10,West,275,2.0,5.0,74,0.00,,,0.00,,2013-10-16 06:52:00,
2013-10-16 01:11:00,29.0,21.0,30.10,West,275,5.0,7.0,73,0.00,,,0.00,,2013-10-16 07:11:00,
2013-10-16 01:21:00,29.0,21.0,30.11,WNW,283,3.0,4.0,72,0.00,,,0.00,,2013-10-16 07:21:00,
2013-10-16 01:32:00,29.0,21.0,30.11,WNW,283,3.0,4.0,72,0.00,,,0.00,,2013-10-16 07:32:00,
2013-10-16 01:42:00,29.0,21.0,30.11,WNW,283,3.0,4.0,72,0.00,,,0.00,,2013-10-16 07:42:00,
2013-10-16 01:52:00,29.0,21.0,30.10,West,281,5.0,6.0,72,0.00,,,0.00,,2013-10-16 07:52:00,
2013-10-16 02:11:00,29.0,21.0,30.10,West,261,3.0,5.0,73,0.00,,,0.00,,2013-10-16 08:11:00,
2013-10-16 02:21:00,28.0,21.0,30.10,West,271,2.0,6.0,74,0.00,,,0.00,,2013-10-16 08:21:00,
2013-10-16 02:41:00,29.0,21.0,30.10,NW,304,3.0,6.0,73,0.00,,,0.00,,2013-10-16 08:41:00,
2013-10-16 02:52:00,29.0,21.0,30.09,WSW,255,3.0,5.0,72,0.00,,,0.00,,2013-10-16 08:52:00,
2013-10-16 03:11:00,28.0,21.0,30.10,SW,236,3.0,5.0,75,0.00,,,0.00,,2013-10-16 09:11:00,
2013-10-16 03:22:00,27.0,21.0,30.09,West,266,2.0,4.0,77,0.00,,,0.00,,2013-10-16 09:22:00,
2013-10-16 03:43:00,28.0,22.0,30.09,WSW,252,1.0,4.0,77,0.00,,,0.00,,2013-10-16 09:43:00,
2013-10-16 03:53:00,27.0,21.0,30.09,WSW,251,2.0,3.0,78,0.00,,,0.00,,2013-10-16 09:53:00,
2013-10-16 04:12:00,27.0,21.0,30.08,WSW,251,1.0,3.0,77,0.00,,,0.00,,2013-10-16 10:12:00,
2013-10-16 04:22:00,28.0,21.0,30.08,WSW,251,1.0,4.0,75,0.00,,,0.00,,2013-10-16 10:22:00,
2013-10-16 04:42:00,27.0,21.0,30.08,WSW,252,0.0,2.0,77,0.00,,,0.00,,2013-10-16 10:42:00,
2013-10-16 04:53:00,27.0,20.0,30.07,SSW,198,2.0,3.0,76,0.00,,,0.00,,2013-10-16 10:53:00,
2013-10-16 05:12:00,26.0,20.0,30.07,South,183,1.0,2.0,78,0.00,,,0.00,,2013-10-16 11:12:00,
2013-10-16 05:22:00,26.0,20.0,30.07,South,183,0.0,2.0,79,0.00,,,0.00,,2013-10-16 11:22:00,
2013-10-16 05:42:00,26.0,20.0,30.06,SSW,208,2.0,3.0,79,0.00,,,0.00,,2013-10-16 11:42:00,
2013-10-16 05:52:00,25.0,20.0,30.06,SSW,210,2.0,3.0,81,0.00,,,0.00,,2013-10-16 11:52:00,
2013-10-16 06:12:00,25.0,20.0,30.06,SSW,209,1.0,3.0,81,0.00,,,0.00,,2013-10-16 12:12:00,
2013-10-16 06:21:00,25.0,19.0,30.05,SSW,209,1.0,2.0,79,0.00,,,0.00,,2013-10-16 12:21:00,
2013-10-16 06:42:00,25.0,20.0,30.05,SSW,209,0.0,3.0,82,0.00,,,0.00,,2013-10-16 12:42:00,
2013-10-16 06:52:00,24.0,20.0,30.05,SSW,210,2.0,3.0,84,0.00,,,0.00,,2013-10-16 12:52:00,
2013-10-16 07:11:00,25.0,20.0,30.04,SSW,210,1.0,2.0,81,0.00,,,0.00,,2013-10-16 13:11:00,
2013-10-16 07:22:00,24.0,20.0,30.05,SSW,210,2.0,3.0,83,0.00,,,0.00,,2013-10-16 13:22:00,
2013-10-16 07:42:00,24.0,19.0,30.04,SSW,210,0.0,2.0,82,0.00,,,0.00,,2013-10-16 13:42:00,
2013-10-16 07:52:00,24.0,19.0,30.04,SW,215,1.0,4.0,80,0.00,,,0.00,,2013-10-16 13:52:00,
2013-10-16 08:11:00,25.0,20.0,30.04,SSW,211,0.0,3.0,81,0.00,,,0.00,,2013-10-16 14:11:00,
2013-10-16 08:22:00,25.0,20.0,30.04,SSW,211,1.0,3.0,80,0.00,,,0.00,,2013-10-16 14:22:00,
2013-10-16 08:42:00,26.0,21.0,30.04,SSE,159,1.0,4.0,80,0.00,,,0.00,,2013-10-16 14:42:00,
2013-10-16 08:52:00,27.0,22.0,30.04,SSW,207,0.0,2.0,81,0.00,,,0.00,,2013-10-16 14:52:00,
2013-10-16 09:11:00,29.0,23.0,30.04,South,189,0.0,2.0,78,0.00,,,0.00,,2013-10-16 15:11:00,
2013-10-16 09:22:00,32.0,24.0,30.04,South,189,0.0,2.0,73,0.00,,,0.00,,2013-10-16 15:22:00,
2013-10-16 09:43:00,33.0,25.0,30.04,ESE,109,2.0,4.0,71,0.00,,,0.00,,2013-10-16 15:43:00,
2013-10-16 09:53:00,33.0,24.0,30.04,NE,51,6.0,8.0,69,0.00,,,0.00,,2013-10-16 15:53:00,
2013-10-16 10:13:00,33.0,24.0,30.04,NE,42,6.0,8.0,69,0.00,,,0.00,,2013-10-16 16:13:00,
2013-10-16 10:23:00,33.0,24.0,30.04,ENE,60,7.0,11.0,68,0.00,,,0.00,,2013-10-16 16:23:00,
2013-10-16 10:42:00,34.0,24.0,30.04,NE,46,6.0,9.0,66,0.00,,,0.00,,2013-10-16 16:42:00,
2013-10-16 10:53:00,35.0,24.0,30.04,NE,48,7.0,9.0,64,0.00,,,0.00,,2013-10-16 16:53:00,
2013-10-16 11:12:00,36.0,25.0,30.03,ENE,57,7.0,11.0,63,0.00,,,0.00,,2013-10-16 17:12:00,
2013-10-16 11:22:00,36.0,24.0,30.03,NNE,29,7.0,12.0,62,0.00,,,0.00,,2013-10-16 17:22:00,
2013-10-16 11:43:00,36.0,24.0,30.03,NE,37,7.0,10.0,62,0.00,,,0.00,,2013-10-16 17:43:00,
2013-10-16 11:52:00,38.0,25.0,30.03,NE,55,6.0,11.0,60,0.00,,,0.00,,2013-10-16 17:52:00,
2013-10-16 12:11:00,39.0,25.0,30.03,NE,56,7.0,12.0,57,0.00,,,0.00,,2013-10-16 18:11:00,
2013-10-16 12:21:00,40.0,25.0,30.03,NNE,30,7.0,11.0,55,0.00,,,0.00,,2013-10-16 18:21:00,
2013-10-16 12:42:00,41.0,25.0,30.03,NE,40,7.0,10.0,53,0.00,,,0.00,,2013-10-16 18:42:00,
2013-10-16 12:52:00,41.0,24.0,30.03,NE,43,5.0,11.0,51,0.00,,,0.00,,2013-10-16 18:52:00,
2013-10-16 13:11:00,41.0,24.0,30.03,ENE,64,5.0,10.0,51,0.00,,,0.00,,2013-10-16 19:11:00,
2013-10-16 13:21:00,42.0,25.0,30.02,NE,52,6.0,11.0,51,0.00,,,0.00,,2013-10-16 19:21:00,
2013-10-16 13:42:00,42.0,26.0,30.02,East,84,3.0,10.0,52,0.00,,,0.00,,2013-10-16 19:42:00,
2013-10-16 13:52:00,43.0,26.0,30.02,ENE,67,4.0,9.0,51,0.00,,,0.00,,2013-10-16 19:52:00,
2013-10-16 14:12:00,43.0,26.0,30.01,NNE,33,4.0,7.0,50,0.00,,,0.00,,2013-10-16 20:12:00,
2013-10-16 14:22:00,43.0,26.0,30.01,ENE,62,2.0,9.0,50,0.00,,,0.00,,2013-10-16 20:22:00,
2013-10-16 14:43:00,44.0,26.0,30.01,ENE,65,3.0,8.0,49,0.00,,,0.00,,2013-10-16 20:43:00,
2013-10-16 14:52:00,44.0,26.0,30.01,ENE,77,4.0,9.0,49,0.00,,,0.00,,2013-10-16 20:52:00,
2013-10-16 15:11:00,44.0,26.0,30.01,ENE,66,1.0,5.0,49,0.00,,,0.00,,2013-10-16 21:11:00,
2013-10-16 15:23:00,44.0,27.0,30.00,ENE,59,3.0,5.0,50,0.00,,,0.00,,2013-10-16 21:23:00,
2013-10-16 15:44:00,44.0,26.0,30.00,East,93,4.0,6.0,49,0.00,,,0.00,,2013-10-16 21:44:00,
2013-10-16 15:54:00,44.0,26.0,30.01,NNE,23,2.0,5.0,49,0.00,,,0.00,,2013-10-16 21:54:00,
2013-10-16 16:14:00,43.0,26.0,30.01,NE,39,1.0,4.0,50,0.00,,,0.00,,2013-10-16 22:14:00,
2013-10-16 16:23:00,43.0,26.0,30.01,NE,49,3.0,5.0,51,0.00,,,0.00,,2013-10-16 22:23:00,
2013-10-16 16:42:00,43.0,27.0,30.02,NNE,20,4.0,7.0,52,0.00,,,0.00,,2013-10-16 22:42:00,
2013-10-16 16:54:00,43.0,26.0,30.02,NE,38,5.0,9.0,51,0.00,,,0.00,,2013-10-16 22:54:00,
2013-10-16 17:12:00,43.0,26.0,30.03,NE,37,5.0,9.0,51,0.00,,,0.00,,2013-10-16 23:12:00,
2013-10-16 17:22:00,43.0,27.0,30.02,NNE,30,4.0,10.0,52,0.00,,,0.00,,2013-10-16 23:22:00,
2013-10-16 17:42:00,43.0,27.0,30.03,NNE,22,6.0,10.0,52,0.00,,,0.00,,2013-10-16 23:42:00,
2013-10-16 17:52:00,43.0,27.0,30.03,NE,40,3.0,7.0,52,0.00,,,0.00,,2013-10-16 23:52:00,
2013-10-16 18:02:00,43.0,27.0,30.03,NE,40,3.0,7.0,52,0.00,,,0.00,,2013-10-17 00:02:00,
2013-10-16 18:11:00,43.0,27.0,30.03,NE,40,3.0,7.0,52,0.00,,,0.00,,2013-10-17 00:11:00,
2013-10-16 18:22:00,43.0,25.0,30.04,NNE,19,5.0,6.0,49,0.00,,,0.00,,2013-10-17 00:22:00,
2013-10-16 18:42:00,43.0,26.0,30.04,NNE,22,1.0,4.0,50,0.00,,,0.00,,2013-10-17 00:42:00,
2013-10-16 18:52:00,42.0,29.0,30.06,NNE,13,12.0,18.0,59,0.00,,,0.00,,2013-10-17 00:52:00,
2013-10-16 19:12:00,39.0,30.0,30.06,NNE,13,7.0,17.0,69,0.00,,,0.00,,2013-10-17 01:12:00,
2013-10-16 19:22:00,38.0,29.0,30.06,North,355,9.0,16.0,71,0.00,,,0.00,,2013-10-17 01:22:00,
2013-10-16 19:42:00,37.0,29.0,30.07,NNE,26,3.0,12.0,73,0.00,,,0.00,,2013-10-17 01:42:00,
2013-10-16 19:52:00,37.0,29.0,30.07,NNE,23,2.0,4.0,74,0.00,,,0.00,,2013-10-17 01:52:00,
2013-10-16 20:12:00,36.0,29.0,30.08,SE,139,3.0,7.0,76,0.00,,,0.00,,2013-10-17 02:12:00,
2013-10-16 20:21:00,35.0,29.0,30.08,SSE,165,4.0,6.0,78,0.00,,,0.00,,2013-10-17 02:21:00,
2013-10-16 21:12:00,36.0,30.0,30.09,South,169,2.0,4.0,78,0.00,,,0.00,,2013-10-17 03:12:00,
2013-10-16 21:22:00,36.0,29.0,30.09,South,169,2.0,3.0,77,0.00,,,0.00,,2013-10-17 03:22:00,
2013-10-16 21:44:00,36.0,30.0,30.10,South,169,1.0,3.0,78,0.00,,,0.00,,2013-10-17 03:44:00,
2013-10-16 21:54:00,36.0,30.0,30.10,South,169,1.0,2.0,78,0.00,,,0.00,,2013-10-17 03:54:00,
2013-10-16 22:14:00,36.0,30.0,30.10,South,183,1.0,3.0,78,0.00,,,0.00,,2013-10-17 04:14:00,
2013-10-16 22:24:00,36.0,30.0,30.10,South,191,1.0,3.0,78,0.00,,,0.00,,2013-10-17 04:24:00,
2013-10-16 22:43:00,36.0,30.0,30.11,South,191,0.0,3.0,78,0.00,,,0.00,,2013-10-17 04:43:00,
2013-10-16 22:54:00,37.0,31.0,30.11,ENE,58,3.0,5.0,78,0.00,,,0.00,,2013-10-17 04:54:00,
2013-10-16 23:13:00,35.0,31.0,30.11,NE,46,6.0,8.0,84,0.00,,,0.00,,2013-10-17 05:13:00,
2013-10-16 23:23:00,35.0,32.0,30.11,East,97,4.0,7.0,87,0.01,,,0.01,,2013-10-17 05:23:00,
2013-10-16 23:42:00,34.0,31.0,30.11,SE,134,3.0,7.0,87,0.01,,,0.01,,2013-10-17 05:42:00,
2013-10-16 23:52:00,34.0,31.0,30.11,SSE,161,4.0,6.0,89,0.01,,,0.01,,2013-10-17 05:52:00,